| time (UTC) | temp F | wind direction | speed MPH | gust MPH | rain 1hr in | rain 24hr in | rain mn in | humidity % | barometer mb |
| 20260508205006 | 69 | 239 | 6.0 | 13.0 | 0.00 | 0.00 | 0.00 | 21 | 1006.0 |
| 20260508204516 | 68 | 243 | 6.0 | 10.0 | 0.00 | 0.00 | 0.00 | 20 | 1006.2 |
| 20260508204006 | 69 | 200 | 2.0 | 14.0 | 0.00 | 0.00 | 0.00 | 20 | 1006.2 |
| 20260508203508 | 67 | 269 | 6.0 | 14.0 | 0.00 | 0.00 | 0.00 | 20 | 1006.2 |
| 20260508203019 | 68 | 265 | 6.0 | 17.0 | 0.00 | 0.00 | 0.00 | 19 | 1006.3 |
| 20260508202506 | 68 | 352 | 4.0 | 17.0 | 0.00 | 0.00 | 0.00 | 19 | 1006.3 |
| 20260508202007 | 68 | 260 | 7.0 | 18.0 | 0.00 | 0.00 | 0.00 | 19 | 1006.4 |
| 20260508201520 | 68 | 196 | 8.0 | 18.0 | 0.00 | 0.00 | 0.00 | 19 | 1006.5 |
| 20260508201006 | 68 | 173 | 7.0 | 17.0 | 0.00 | 0.00 | 0.00 | 19 | 1006.6 |
| 20260508200506 | 68 | 297 | 9.0 | 14.0 | 0.00 | 0.00 | 0.00 | 19 | 1006.7 |
| 20260508200024 | 68 | 224 | 5.0 | 13.0 | 0.00 | 0.00 | 0.00 | 18 | 1006.8 |
| 20260508195506 | 68 | 30 | 3.0 | 16.0 | 0.00 | 0.00 | 0.00 | 19 | 1006.9 |
| 20260508195006 | 68 | 259 | 10.0 | 15.0 | 0.00 | 0.00 | 0.00 | 18 | 1007.0 |
| 20260508194503 | 68 | 298 | 2.0 | 11.0 | 0.00 | 0.00 | 0.00 | 18 | 1007.0 |
| 20260508194004 | 69 | 115 | 5.0 | 12.0 | 0.00 | 0.00 | 0.00 | 20 | 1007.2 |
| 20260508193504 | 68 | 236 | 6.0 | 12.0 | 0.00 | 0.00 | 0.00 | 20 | 1007.1 |
| 20260508193003 | 68 | 185 | 4.0 | 17.0 | 0.00 | 0.00 | 0.00 | 21 | 1007.3 |
| 20260508192507 | 68 | 161 | 4.0 | 17.0 | 0.00 | 0.00 | 0.00 | 20 | 1007.3 |
| 20260508192007 | 68 | 166 | 5.0 | 10.0 | 0.00 | 0.00 | 0.00 | 21 | 1007.4 |
| 20260508191532 | 67 | 224 | 2.0 | 11.0 | 0.00 | 0.00 | 0.00 | 22 | 1007.4 |
| 20260508191006 | 67 | 207 | 5.0 | 13.0 | 0.00 | 0.00 | 0.00 | 21 | 1007.4 |
| 20260508190507 | 68 | 246 | 7.0 | 17.0 | 0.00 | 0.00 | 0.00 | 19 | 1007.5 |
| 20260508190023 | 67 | 261 | 5.0 | 17.0 | 0.00 | 0.00 | 0.00 | 20 | 1007.5 |
| 20260508185502 | 68 | 257 | 4.0 | 8.0 | 0.00 | 0.00 | 0.00 | 19 | 1007.5 |
| 20260508185007 | 68 | 207 | 3.0 | 8.0 | 0.00 | 0.00 | 0.00 | 22 | 1007.6 |
| 20260508184504 | 67 | 186 | 2.0 | 13.0 | 0.00 | 0.00 | 0.00 | 21 | 1007.7 |
| 20260508184003 | 67 | 165 | 4.0 | 13.0 | 0.00 | 0.00 | 0.00 | 21 | 1007.8 |
| 20260508183510 | 67 | 246 | 3.0 | 7.0 | 0.00 | 0.00 | 0.00 | 20 | 1007.9 |
| 20260508183004 | 68 | 184 | 3.0 | 12.0 | 0.00 | 0.00 | 0.00 | 21 | 1008.0 |
| 20260508182504 | 68 | 169 | 2.0 | 12.0 | 0.00 | 0.00 | 0.00 | 22 | 1008.0 |
| 20260508182006 | 67 | 213 | 5.0 | 11.0 | 0.00 | 0.00 | 0.00 | 21 | 1008.1 |
| 20260508181523 | 66 | 42 | 5.0 | 11.0 | 0.00 | 0.00 | 0.00 | 21 | 1008.0 |
| 20260508181004 | 68 | 68 | 4.0 | 9.0 | 0.00 | 0.00 | 0.00 | 20 | 1008.0 |
| 20260508180507 | 68 | 190 | 3.0 | 7.0 | 0.00 | 0.00 | 0.00 | 22 | 1008.0 |
| 20260508180005 | 66 | 247 | 2.0 | 10.0 | 0.00 | 0.00 | 0.00 | 22 | 1008.0 |
| 20260508175504 | 66 | 360 | 2.0 | 16.0 | 0.00 | 0.00 | 0.00 | 23 | 1008.3 |
| 20260508175007 | 66 | 246 | 1.0 | 16.0 | 0.00 | 0.00 | 0.00 | 24 | 1008.3 |
| 20260508174503 | 65 | 70 | 4.0 | 12.0 | 0.00 | 0.00 | 0.00 | 23 | 1008.3 |
| 20260508174002 | 65 | 255 | 2.0 | 14.0 | 0.00 | 0.00 | 0.00 | 23 | 1008.5 |
| 20260508173508 | 66 | 66 | 9.0 | 14.0 | 0.00 | 0.00 | 0.00 | 23 | 1008.6 |
| 20260508173024 | 66 | 213 | 3.0 | 10.0 | 0.00 | 0.00 | 0.00 | 24 | 1008.6 |
| 20260508172514 | 65 | 205 | 4.0 | 10.0 | 0.00 | 0.00 | 0.00 | 24 | 1008.7 |
| 20260508172012 | 65 | 169 | 5.0 | 13.0 | 0.00 | 0.00 | 0.00 | 24 | 1008.8 |
| 20260508171510 | 65 | 259 | 9.0 | 13.0 | 0.00 | 0.00 | 0.00 | 24 | 1008.9 |
| 20260508171006 | 65 | 242 | 4.0 | 9.0 | 0.00 | 0.00 | 0.00 | 23 | 1009.0 |
| 20260508170502 | 65 | 242 | 2.0 | 8.0 | 0.00 | 0.00 | 0.00 | 25 | 1009.1 |
| 20260508170009 | 64 | 157 | 3.0 | 9.0 | 0.00 | 0.00 | 0.00 | 25 | 1009.2 |
| 20260508165506 | 63 | 296 | 1.0 | 9.0 | 0.00 | 0.00 | 0.00 | 25 | 1009.3 |
| 20260508165005 | 65 | 228 | 2.0 | 5.0 | 0.00 | 0.00 | 0.00 | 25 | 1009.4 |
| 20260508164508 | 64 | 223 | 0.0 | 4.0 | 0.00 | 0.00 | 0.00 | 25 | 1009.4 |
| 20260508164007 | 63 | 143 | 2.0 | 4.0 | 0.00 | 0.00 | 0.00 | 25 | 1009.5 |
| 20260508163502 | 63 | 61 | 1.0 | 11.0 | 0.00 | 0.00 | 0.00 | 24 | 1009.6 |
| 20260508163012 | 64 | 177 | 1.0 | 11.0 | 0.00 | 0.00 | 0.00 | 24 | 1009.7 |
| 20260508162513 | 64 | 281 | 2.0 | 11.0 | 0.00 | 0.00 | 0.00 | 24 | 1009.8 |
| 20260508162002 | 65 | 228 | 4.0 | 9.0 | 0.00 | 0.00 | 0.00 | 26 | 1009.8 |
| 20260508161528 | 62 | 123 | 2.0 | 9.0 | 0.00 | 0.00 | 0.00 | 26 | 1010.0 |
| 20260508161008 | 62 | 200 | 5.0 | 9.0 | 0.00 | 0.00 | 0.00 | 28 | 1010.1 |
| 20260508160502 | 61 | 236 | 2.0 | 7.0 | 0.00 | 0.00 | 0.00 | 26 | 1010.1 |
| 20260508160020 | 62 | 215 | 2.0 | 8.0 | 0.00 | 0.00 | 0.00 | 28 | 1010.2 |
| 20260508155509 | 62 | 216 | 2.0 | 8.0 | 0.00 | 0.00 | 0.00 | 28 | 1010.2 |
| 20260508155003 | 63 | 96 | 1.0 | 8.0 | 0.00 | 0.00 | 0.00 | 29 | 1010.2 |
| 20260508154518 | 61 | 177 | 3.0 | 8.0 | 0.00 | 0.00 | 0.00 | 30 | 1010.2 |
| 20260508154013 | 61 | 199 | 4.0 | 8.0 | 0.00 | 0.00 | 0.00 | 30 | 1010.2 |
| 20260508153515 | 60 | 142 | 3.0 | 8.0 | 0.00 | 0.00 | 0.00 | 32 | 1010.3 |
| 20260508153015 | 60 | 200 | 2.0 | 6.0 | 0.00 | 0.00 | 0.00 | 33 | 1010.3 |
| 20260508152510 | 60 | 184 | 3.0 | 6.0 | 0.00 | 0.00 | 0.00 | 33 | 1010.2 |
| 20260508152006 | 60 | 218 | 2.0 | 9.0 | 0.00 | 0.00 | 0.00 | 33 | 1010.3 |
| 20260508151518 | 59 | 190 | 4.0 | 9.0 | 0.00 | 0.00 | 0.00 | 34 | 1010.3 |
| 20260508151013 | 60 | 153 | 4.0 | 9.0 | 0.00 | 0.00 | 0.00 | 30 | 1010.4 |
| 20260508150503 | 59 | 206 | 4.0 | 9.0 | 0.00 | 0.00 | 0.00 | 34 | 1010.2 |
| 20260508150035 | 60 | 212 | 3.0 | 8.0 | 0.00 | 0.00 | 0.00 | 31 | 1010.3 |
| 20260508145509 | 59 | 223 | 3.0 | 7.0 | 0.00 | 0.00 | 0.00 | 32 | 1010.4 |
| 20260508145004 | 59 | 197 | 3.0 | 7.0 | 0.00 | 0.00 | 0.00 | 37 | 1010.3 |
| 20260508144519 | 58 | 258 | 3.0 | 6.0 | 0.00 | 0.00 | 0.00 | 38 | 1010.3 |
| 20260508144010 | 59 | 213 | 2.0 | 5.0 | 0.00 | 0.00 | 0.00 | 37 | 1010.2 |
| 20260508143503 | 58 | 210 | 2.0 | 7.0 | 0.00 | 0.00 | 0.00 | 39 | 1010.2 |
| 20260508143021 | 57 | 288 | 3.0 | 7.0 | 0.00 | 0.00 | 0.00 | 40 | 1010.3 |
| 20260508142510 | 57 | 169 | 3.0 | 6.0 | 0.00 | 0.00 | 0.00 | 40 | 1010.3 |
| 20260508142004 | 56 | 227 | 2.0 | 8.0 | 0.00 | 0.00 | 0.00 | 44 | 1010.4 |
| 20260508141525 | 56 | 188 | 2.0 | 8.0 | 0.00 | 0.00 | 0.00 | 44 | 1010.4 |
| 20260508141002 | 56 | 202 | 2.0 | 6.0 | 0.00 | 0.00 | 0.00 | 47 | 1010.5 |
| 20260508140503 | 55 | 218 | 1.0 | 8.0 | 0.00 | 0.00 | 0.00 | 54 | 1010.4 |
| 20260508140027 | 55 | 244 | 3.0 | 8.0 | 0.00 | 0.00 | 0.00 | 1010.4 | |
| 20260508135503 | 54 | 193 | 1.0 | 7.0 | 0.00 | 0.00 | 0.00 | 59 | 1010.6 |
| 20260508135012 | 53 | 281 | 2.0 | 7.0 | 0.00 | 0.00 | 0.00 | 59 | 1010.6 |
| 20260508134525 | 52 | 306 | 2.0 | 8.0 | 0.00 | 0.00 | 0.00 | 60 | 1010.7 |
| 20260508134002 | 51 | 242 | 5.0 | 8.0 | 0.00 | 0.00 | 0.00 | 62 | 1010.8 |
| 20260508133507 | 51 | 232 | 2.0 | 6.0 | 0.00 | 0.00 | 0.00 | 64 | 1010.8 |
| 20260508133024 | 50 | 234 | 4.0 | 6.0 | 0.00 | 0.00 | 0.00 | 63 | 1010.8 |
| 20260508132502 | 49 | 175 | 1.0 | 4.0 | 0.00 | 0.00 | 0.00 | 65 | 1010.7 |
| 20260508132005 | 48 | 238 | 1.0 | 4.0 | 0.00 | 0.00 | 0.00 | 67 | 1010.9 |
| 20260508131525 | 47 | 215 | 1.0 | 4.0 | 0.00 | 0.00 | 0.00 | 68 | 1011.0 |
| 20260508131005 | 47 | 221 | 1.0 | 4.0 | 0.00 | 0.00 | 0.00 | 69 | 1011.0 |
| 20260508130505 | 46 | 201 | 2.0 | 4.0 | 0.00 | 0.00 | 0.00 | 69 | 1011.1 |
| 20260508130029 | 45 | 279 | 2.0 | 4.0 | 0.00 | 0.00 | 0.00 | 70 | 1011.1 |
| 20260508125503 | 45 | 251 | 1.0 | 4.0 | 0.00 | 0.00 | 0.00 | 71 | 1011.0 |
| 20260508125006 | 44 | 284 | 1.0 | 4.0 | 0.00 | 0.00 | 0.00 | 73 | 1011.0 |
| 20260508124526 | 43 | 251 | 1.0 | 3.0 | 0.00 | 0.00 | 0.00 | 73 | 1011.1 |
| 20260508124004 | 43 | 254 | 0.0 | 3.0 | 0.00 | 0.00 | 0.00 | 75 | 1011.1 |
| 20260508123510 | 41 | 188 | 1.0 | 3.0 | 0.00 | 0.00 | 0.00 | 76 | 1011.1 |
| 20260508123028 | 41 | 207 | 1.0 | 2.0 | 0.00 | 0.00 | 0.00 | 76 | 1011.1 |
| 20260508122503 | 40 | 242 | 1.0 | 2.0 | 0.00 | 0.00 | 0.00 | 76 | 1011.1 |
| 20260508122011 | 40 | 209 | 0.0 | 2.0 | 0.00 | 0.00 | 0.00 | 79 | 1011.1 |
| 20260508121528 | 39 | 209 | 0.0 | 2.0 | 0.00 | 0.00 | 0.00 | 79 | 1011.0 |
| 20260508121002 | 38 | 215 | 0.0 | 2.0 | 0.00 | 0.00 | 0.00 | 79 | 1011.0 |
| 20260508120508 | 38 | 194 | 0.0 | 2.0 | 0.00 | 0.00 | 0.00 | 80 | 1011.0 |
| 20260508120029 | 37 | 195 | 1.0 | 2.0 | 0.00 | 0.00 | 0.00 | 80 | 1011.0 |
| 20260508115506 | 36 | 212 | 1.0 | 2.0 | 0.00 | 0.00 | 0.00 | 81 | 1011.0 |
| 20260508115007 | 36 | 213 | 0.0 | 2.0 | 0.00 | 0.00 | 0.00 | 82 | 1010.9 |
| 20260508114532 | 35 | 213 | 1.0 | 2.0 | 0.00 | 0.00 | 0.00 | 82 | 1010.9 |
| 20260508114005 | 34 | 213 | 1.0 | 2.0 | 0.00 | 0.00 | 0.00 | 83 | 1010.9 |
| 20260508113507 | 34 | 211 | 1.0 | 2.0 | 0.00 | 0.00 | 0.00 | 84 | 1010.8 |
| 20260508113030 | 34 | 209 | 0.0 | 2.0 | 0.00 | 0.00 | 0.00 | 85 | 1010.9 |
| 20260508112507 | 33 | 209 | 0.0 | 2.0 | 0.00 | 0.00 | 0.00 | 86 | 1010.9 |
| 20260508112011 | 33 | 209 | 1.0 | 2.0 | 0.00 | 0.00 | 0.00 | 86 | 1010.9 |
| 20260508111530 | 33 | 211 | 1.0 | 2.0 | 0.00 | 0.00 | 0.00 | 86 | 1010.9 |
| 20260508111007 | 33 | 210 | 0.0 | 2.0 | 0.00 | 0.00 | 0.00 | 86 | 1010.9 |
| 20260508110510 | 32 | 210 | 0.0 | 2.0 | 0.00 | 0.00 | 0.00 | 86 | 1010.8 |
| 20260508110030 | 32 | 210 | 1.0 | 2.0 | 0.00 | 0.00 | 0.00 | 86 | 1010.7 |
| 20260508105502 | 32 | 210 | 0.0 | 2.0 | 0.00 | 0.00 | 0.00 | 87 | 1010.7 |
| 20260508105003 | 32 | 210 | 0.0 | 2.0 | 0.00 | 0.00 | 0.00 | 87 | 1010.6 |
| 20260508104516 | 32 | 210 | 0.0 | 15.0 | 0.00 | 0.00 | 0.00 | 87 | 1010.7 |
| 20260508103959 | 32 | 210 | 0.0 | 15.0 | 0.00 | 0.00 | 0.00 | 86 | 1010.7 |
| 20260508103503 | 32 | 210 | 0.0 | 2.0 | 0.00 | 0.00 | 0.00 | 86 | 1010.8 |
| 20260508103019 | 32 | 210 | 0.0 | 2.0 | 0.00 | 0.00 | 0.00 | 87 | 1010.7 |
| 20260508102504 | 32 | 210 | 0.0 | 2.0 | 0.00 | 0.00 | 0.00 | 86 | 1010.8 |
| 20260508102003 | 32 | 209 | 0.0 | 0.0 | 0.00 | 0.00 | 0.00 | 86 | 1010.8 |
| 20260508101517 | 32 | 209 | 0.0 | 0.0 | 0.00 | 0.00 | 0.00 | 86 | 1010.8 |
| 20260508101003 | 32 | 209 | 0.0 | 0.0 | 0.00 | 0.00 | 0.00 | 86 | 1010.9 |
| 20260508100503 | 32 | 209 | 0.0 | 0.0 | 0.00 | 0.00 | 0.00 | 86 | 1010.9 |
| 20260508100023 | 32 | 209 | 0.0 | 0.0 | 0.00 | 0.00 | 0.00 | 86 | 1010.9 |
| 20260508095503 | 32 | 209 | 0.0 | 0.0 | 0.00 | 0.00 | 0.00 | 86 | 1010.9 |
| 20260508095004 | 32 | 209 | 0.0 | 0.0 | 0.00 | 0.00 | 0.00 | 86 | 1010.9 |
| 20260508094520 | 33 | 209 | 0.0 | 0.0 | 0.00 | 0.00 | 0.00 | 86 | 1011.0 |
| 20260508094004 | 33 | 209 | 0.0 | 0.0 | 0.00 | 0.00 | 0.00 | 86 | 1011.0 |
| 20260508093502 | 33 | 209 | 0.0 | 0.0 | 0.00 | 0.00 | 0.00 | 86 | 1011.1 |
| 20260508093019 | 33 | 207 | 0.0 | 2.0 | 0.00 | 0.00 | 0.00 | 86 | 1011.1 |
| 20260508092502 | 33 | 205 | 0.0 | 2.0 | 0.00 | 0.00 | 0.00 | 85 | 1011.0 |
| 20260508092004 | 33 | 205 | 0.0 | 2.0 | 0.00 | 0.00 | 0.00 | 85 | 1011.1 |
| 20260508091521 | 33 | 219 | 0.0 | 0.0 | 0.00 | 0.00 | 0.00 | 85 | 1011.1 |
| 20260508091003 | 33 | 219 | 0.0 | 1.0 | 0.00 | 0.00 | 0.00 | 85 | 1011.1 |
| 20260508090503 | 33 | 219 | 0.0 | 2.0 | 0.00 | 0.00 | 0.00 | 85 | 1011.1 |
| 20260508090024 | 33 | 219 | 1.0 | 2.0 | 0.00 | 0.00 | 0.00 | 85 | 1011.1 |
| 20260508085503 | 33 | 229 | 1.0 | 2.0 | 0.00 | 0.00 | 0.00 | 84 | 1011.1 |
| 20260508085002 | 33 | 223 | 0.0 | 2.0 | 0.00 | 0.00 | 0.00 | 84 | 1011.2 |
| 20260508084524 | 33 | 223 | 0.0 | 2.0 | 0.00 | 0.00 | 0.00 | 84 | 1011.2 |
| 20260508084004 | 34 | 223 | 0.0 | 2.0 | 0.00 | 0.00 | 0.00 | 84 | 1011.2 |
| 20260508083505 | 34 | 223 | 0.0 | 2.0 | 0.00 | 0.00 | 0.00 | 83 | 1011.2 |
| 20260508083024 | 34 | 223 | 0.0 | 3.0 | 0.00 | 0.00 | 0.00 | 83 | 1011.2 |
| 20260508082502 | 34 | 223 | 1.0 | 3.0 | 0.00 | 0.00 | 0.00 | 83 | 1011.3 |
| 20260508082006 | 34 | 229 | 1.0 | 3.0 | 0.00 | 0.00 | 0.00 | 82 | 1011.3 |
| 20260508081526 | 34 | 218 | 1.0 | 2.0 | 0.00 | 0.00 | 0.00 | 81 | 1011.3 |
| 20260508081003 | 35 | 203 | 0.0 | 2.0 | 0.00 | 0.00 | 0.00 | 81 | 1011.2 |
| 20260508080503 | 35 | 153 | 1.0 | 2.0 | 0.00 | 0.00 | 0.00 | 1011.2 | |
| 20260508080042 | 35 | 153 | 0.0 | 2.0 | 0.00 | 0.00 | 0.00 | 1011.3 | |
| 20260508075503 | 36 | 153 | 0.0 | 2.0 | 0.00 | 0.00 | 0.00 | 78 | 1011.3 |
| 20260508075008 | 36 | 153 | 0.0 | 2.0 | 0.00 | 0.00 | 0.00 | 78 | 1011.3 |
| 20260508074526 | 36 | 153 | 0.0 | 2.0 | 0.00 | 0.00 | 0.00 | 79 | 1011.3 |
| 20260508074003 | 36 | 153 | 0.0 | 2.0 | 0.00 | 0.00 | 0.00 | 79 | 1011.3 |
| 20260508073505 | 35 | 152 | 0.0 | 2.0 | 0.00 | 0.00 | 0.00 | 80 | 1011.3 |
| 20260508073028 | 35 | 234 | 0.0 | 2.0 | 0.00 | 0.00 | 0.00 | 80 | 1011.6 |
| 20260508072505 | 35 | 234 | 0.0 | 2.0 | 0.00 | 0.00 | 0.00 | 80 | 1011.6 |
| 20260508072005 | 35 | 234 | 0.0 | 2.0 | 0.00 | 0.00 | 0.00 | 79 | 1011.7 |
| 20260508071526 | 35 | 234 | 0.0 | 2.0 | 0.00 | 0.00 | 0.00 | 79 | 1011.6 |
| 20260508071003 | 36 | 234 | 0.0 | 2.0 | 0.00 | 0.00 | 0.00 | 79 | 1011.8 |
| 20260508070508 | 36 | 234 | 1.0 | 2.0 | 0.00 | 0.00 | 0.00 | 78 | 1011.8 |
| 20260508070027 | 36 | 259 | 0.0 | 2.0 | 0.00 | 0.00 | 0.00 | 78 | 1011.8 |
| 20260508065503 | 36 | 259 | 1.0 | 2.0 | 0.00 | 0.00 | 0.00 | 78 | 1011.8 |
| 20260508065006 | 36 | 259 | 0.0 | 2.0 | 0.00 | 0.00 | 0.00 | 77 | 1011.9 |
| 20260508064517 | 36 | 259 | 0.0 | 2.0 | 0.00 | 0.00 | 0.00 | 76 | 1011.9 |
| 20260508064003 | 37 | 259 | 1.0 | 2.0 | 0.00 | 0.00 | 0.00 | 76 | 1011.9 |
| 20260508063510 | 37 | 259 | 0.0 | 2.0 | 0.00 | 0.00 | 0.00 | 76 | 1011.8 |
| 20260508063006 | 37 | 259 | 0.0 | 2.0 | 0.00 | 0.00 | 0.00 | 75 | 1011.8 |
| 20260508062507 | 37 | 259 | 0.0 | 2.0 | 0.00 | 0.00 | 0.00 | 75 | 1011.9 |
| 20260508062009 | 37 | 259 | 0.0 | 2.0 | 0.00 | 0.00 | 0.00 | 74 | 1011.9 |
| 20260508061510 | 38 | 259 | 0.0 | 2.0 | 0.00 | 0.00 | 0.00 | 73 | 1011.9 |
| 20260508061007 | 38 | 259 | 0.0 | 2.0 | 0.00 | 0.00 | 0.00 | 73 | 1012.0 |
| 20260508060508 | 38 | 259 | 0.0 | 2.0 | 0.00 | 0.00 | 0.00 | 71 | 1012.0 |
| 20260508060009 | 38 | 41 | 0.0 | 2.0 | 0.00 | 0.00 | 0.00 | 70 | 1012.0 |
| 20260508055507 | 39 | 41 | 0.0 | 2.0 | 0.00 | 0.00 | 0.00 | 70 | 1012.1 |
| 20260508055007 | 39 | 40 | 0.0 | 2.0 | 0.00 | 0.00 | 0.00 | 69 | 1012.2 |
| 20260508054521 | 39 | 40 | 0.0 | 2.0 | 0.00 | 0.00 | 0.00 | 69 | 1012.2 |
| 20260508054006 | 39 | 41 | 0.0 | 2.0 | 0.00 | 0.00 | 0.00 | 69 | 1012.2 |
| 20260508053509 | 39 | 40 | 0.0 | 2.0 | 0.00 | 0.00 | 0.00 | 68 | 1012.2 |
| 20260508053011 | 39 | 40 | 0.0 | 2.0 | 0.00 | 0.00 | 0.00 | 68 | 1012.2 |
| 20260508052507 | 39 | 41 | 0.0 | 2.0 | 0.00 | 0.00 | 0.00 | 68 | 1012.3 |
| 20260508052011 | 39 | 343 | 0.0 | 2.0 | 0.00 | 0.00 | 0.00 | 68 | 1012.3 |
| 20260508051513 | 39 | 22 | 0.0 | 2.0 | 0.00 | 0.00 | 0.00 | 68 | 1012.2 |
| 20260508051006 | 40 | 360 | 0.0 | 2.0 | 0.00 | 0.00 | 0.00 | 67 | 1012.3 |
| 20260508050512 | 40 | 36 | 0.0 | 2.0 | 0.00 | 0.00 | 0.00 | 67 | 1012.4 |
| 20260508050011 | 40 | 360 | 1.0 | 2.0 | 0.00 | 0.00 | 0.00 | 67 | 1012.4 |
| 20260508045506 | 40 | 323 | 1.0 | 3.0 | 0.00 | 0.00 | 0.00 | 67 | 1012.3 |
| 20260508045010 | 40 | 84 | 1.0 | 4.0 | 0.00 | 0.00 | 0.00 | 66 | 1012.2 |
| 20260508044513 | 40 | 38 | 1.0 | 4.0 | 0.00 | 0.00 | 0.00 | 66 | 1012.1 |
| 20260508044007 | 40 | 61 | 1.0 | 2.0 | 0.00 | 0.00 | 0.00 | 66 | 1012.2 |
| 20260508043506 | 40 | 81 | 0.0 | 2.0 | 0.00 | 0.00 | 0.00 | 66 | 1012.1 |
| 20260508043017 | 40 | 34 | 0.0 | 2.0 | 0.00 | 0.00 | 0.00 | 66 | 1012.0 |
| 20260508042508 | 40 | 46 | 0.0 | 2.0 | 0.00 | 0.00 | 0.00 | 66 | 1012.0 |
| 20260508042010 | 40 | 33 | 0.0 | 3.0 | 0.00 | 0.00 | 0.00 | 65 | 1012.0 |
| 20260508041516 | 41 | 64 | 1.0 | 3.0 | 0.00 | 0.00 | 0.00 | 65 | 1012.0 |
| 20260508041009 | 41 | 29 | 1.0 | 2.0 | 0.00 | 0.00 | 0.00 | 65 | 1012.0 |
| 20260508040513 | 41 | 75 | 0.0 | 2.0 | 0.00 | 0.00 | 0.00 | 65 | 1011.9 |
| 20260508040035 | 41 | 75 | 0.0 | 2.0 | 0.00 | 0.00 | 0.00 | 64 | 1011.8 |
| 20260508035507 | 41 | 80 | 1.0 | 2.0 | 0.00 | 0.00 | 0.00 | 64 | 1011.8 |
| 20260508035017 | 41 | 76 | 1.0 | 3.0 | 0.00 | 0.00 | 0.00 | 64 | 1011.8 |
| 20260508034520 | 41 | 62 | 2.0 | 3.0 | 0.00 | 0.00 | 0.00 | 64 | 1011.8 |
| 20260508034006 | 42 | 61 | 2.0 | 3.0 | 0.00 | 0.00 | 0.00 | 64 | 1011.7 |
| 20260508033511 | 42 | 72 | 2.0 | 3.0 | 0.00 | 0.00 | 0.00 | 64 | 1011.6 |
| 20260508033020 | 42 | 65 | 1.0 | 3.0 | 0.00 | 0.00 | 0.00 | 64 | 1011.5 |
| 20260508032509 | 42 | 71 | 2.0 | 3.0 | 0.00 | 0.00 | 0.00 | 64 | 1011.5 |
| 20260508032014 | 41 | 107 | 0.0 | 3.0 | 0.00 | 0.00 | 0.00 | 64 | 1011.5 |
| 20260508031523 | 42 | 140 | 1.0 | 3.0 | 0.00 | 0.00 | 0.00 | 64 | 1011.5 |
| 20260508031007 | 42 | 81 | 0.0 | 4.0 | 0.00 | 0.00 | 0.00 | 63 | 1011.5 |
| 20260508030511 | 42 | 111 | 0.0 | 4.0 | 0.00 | 0.00 | 0.00 | 63 | 1011.5 |
| 20260508030023 | 42 | 115 | 1.0 | 5.0 | 0.00 | 0.00 | 0.00 | 62 | 1011.5 |
| 20260508025510 | 42 | 79 | 2.0 | 5.0 | 0.00 | 0.00 | 0.00 | 62 | 1011.6 |
| 20260508025014 | 42 | 119 | 1.0 | 5.0 | 0.00 | 0.00 | 0.00 | 62 | 1011.4 |
| 20260508024526 | 42 | 55 | 2.0 | 5.0 | 0.00 | 0.00 | 0.00 | 62 | 1011.4 |
| 20260508024009 | 42 | 132 | 2.0 | 4.0 | 0.00 | 0.00 | 0.00 | 62 | 1011.4 |
| 20260508023505 | 42 | 113 | 1.0 | 3.0 | 0.00 | 0.00 | 0.00 | 62 | 1011.2 |
| 20260508023026 | 42 | 117 | 1.0 | 3.0 | 0.00 | 0.00 | 0.00 | 62 | 1011.2 |
| 20260508022510 | 42 | 107 | 1.0 | 3.0 | 0.00 | 0.00 | 0.00 | 61 | 1011.2 |
| 20260508022010 | 42 | 121 | 1.0 | 3.0 | 0.00 | 0.00 | 0.00 | 61 | 1011.2 |
| 20260508021502 | 42 | 89 | 1.0 | 3.0 | 0.00 | 0.00 | 0.00 | 61 | 1011.1 |
| 20260508021004 | 43 | 107 | 1.0 | 3.0 | 0.00 | 0.00 | 0.00 | 62 | 1010.9 |
| 20260508020503 | 43 | 65 | 1.0 | 4.0 | 0.00 | 0.00 | 0.00 | 62 | 1010.9 |
| 20260508020002 | 43 | 94 | 1.0 | 4.0 | 0.00 | 0.00 | 0.00 | 62 | 1010.9 |
| 20260508015503 | 43 | 139 | 1.0 | 4.0 | 0.00 | 0.00 | 0.00 | 62 | 1010.9 |
| 20260508015003 | 44 | 46 | 1.0 | 4.0 | 0.00 | 0.00 | 0.00 | 62 | 1010.9 |
| 20260508014506 | 44 | 115 | 2.0 | 4.0 | 0.00 | 0.00 | 0.00 | 62 | 1010.9 |
| 20260508014004 | 44 | 117 | 1.0 | 7.0 | 0.00 | 0.00 | 0.00 | 62 | 1010.7 |
| 20260508013505 | 45 | 144 | 3.0 | 7.0 | 0.00 | 0.00 | 0.00 | 62 | 1010.7 |
| 20260508013003 | 45 | 63 | 3.0 | 7.0 | 0.00 | 0.00 | 0.00 | 63 | 1010.7 |
| 20260508012504 | 45 | 67 | 3.0 | 6.0 | 0.00 | 0.00 | 0.00 | 63 | 1010.6 |
| 20260508012005 | 46 | 79 | 3.0 | 6.0 | 0.00 | 0.00 | 0.00 | 63 | 1010.4 |
| 20260508011507 | 46 | 65 | 3.0 | 6.0 | 0.00 | 0.00 | 0.00 | 63 | 1010.5 |
| 20260508011004 | 46 | 116 | 2.0 | 8.0 | 0.00 | 0.00 | 0.00 | 63 | 1010.6 |
| 20260508010506 | 46 | 74 | 3.0 | 9.0 | 0.00 | 0.00 | 0.00 | 62 | 1010.5 |
| 20260508010005 | 47 | 103 | 2.0 | 9.0 | 0.00 | 0.00 | 0.00 | 62 | 1010.5 |
| 20260508005503 | 47 | 81 | 2.0 | 9.0 | 0.00 | 0.00 | 0.00 | 60 | 1010.5 |
| 20260508005009 | 47 | 97 | 4.0 | 9.0 | 0.00 | 0.00 | 0.00 | 60 | 1010.4 |
| 20260508004502 | 47 | 60 | 2.0 | 10.0 | 0.00 | 0.00 | 0.00 | 60 | 1010.3 |
| 20260508004007 | 48 | 57 | 3.0 | 11.0 | 0.00 | 0.00 | 0.00 | 60 | 1010.2 |
| 20260508003511 | 48 | 130 | 3.0 | 10.0 | 0.00 | 0.00 | 0.00 | 59 | 1010.3 |
| 20260508003007 | 48 | 55 | 3.0 | 10.0 | 0.00 | 0.00 | 0.00 | 59 | 1010.2 |
| 20260508002506 | 49 | 98 | 2.0 | 10.0 | 0.00 | 0.00 | 0.00 | 59 | 1010.2 |
| 20260508002010 | 49 | 89 | 5.0 | 10.0 | 0.00 | 0.00 | 0.00 | 58 | 1010.1 |
| 20260508001508 | 49 | 107 | 4.0 | 10.0 | 0.00 | 0.00 | 0.00 | 56 | 1010.1 |
| 20260508001006 | 50 | 32 | 2.0 | 9.0 | 0.00 | 0.00 | 0.00 | 56 | 1010.0 |
| 20260508000512 | 50 | 121 | 2.0 | 9.0 | 0.00 | 0.00 | 0.00 | 54 | 1009.9 |
| 20260508000007 | 50 | 100 | 4.0 | 9.0 | 0.00 | 0.00 | 0.00 | 53 | 1009.9 |
| 20260507235512 | 51 | 58 | 4.0 | 8.0 | 0.00 | 0.00 | 0.00 | 52 | 1009.9 |
| 20260507235010 | 51 | 338 | 3.0 | 11.0 | 0.00 | 0.00 | 0.00 | 51 | 1009.8 |
| 20260507234516 | 51 | 36 | 4.0 | 11.0 | 0.00 | 0.00 | 0.00 | 50 | 1009.8 |
| 20260507234006 | 51 | 77 | 4.0 | 11.0 | 0.00 | 0.00 | 0.00 | 49 | 1009.9 |
| 20260507233506 | 51 | 79 | 4.0 | 9.0 | 0.00 | 0.00 | 0.00 | 48 | 1009.8 |
| 20260507233030 | 51 | 97 | 5.0 | 9.0 | 0.00 | 0.00 | 0.00 | 48 | 1009.8 |
| 20260507232508 | 51 | 84 | 3.0 | 9.0 | 0.00 | 0.00 | 0.00 | 48 | 1009.9 |
| 20260507232004 | 52 | 89 | 4.0 | 10.0 | 0.00 | 0.00 | 0.00 | 47 | 1009.8 |
| 20260507231510 | 52 | 55 | 5.0 | 8.0 | 0.00 | 0.00 | 0.00 | 46 | 1009.8 |
| 20260507231011 | 52 | 103 | 3.0 | 9.0 | 0.00 | 0.00 | 0.00 | 46 | 1009.8 |
| 20260507230509 | 52 | 81 | 3.0 | 9.0 | 0.00 | 0.00 | 0.00 | 47 | 1010.0 |
| 20260507230015 | 52 | 136 | 3.0 | 9.0 | 0.00 | 0.00 | 0.00 | 47 | 1010.0 |
| 20260507225505 | 52 | 125 | 3.0 | 8.0 | 0.00 | 0.00 | 0.00 | 47 | 1010.0 |
| 20260507225003 | 52 | 40 | 4.0 | 11.0 | 0.00 | 0.00 | 0.00 | 47 | 1010.0 |
| 20260507224514 | 52 | 42 | 4.0 | 11.0 | 0.00 | 0.00 | 0.00 | 47 | 1010.0 |
| 20260507224007 | 52 | 46 | 7.0 | 14.0 | 0.00 | 0.00 | 0.00 | 47 | 1010.1 |
| 20260507223503 | 52 | 98 | 6.0 | 14.0 | 0.00 | 0.00 | 0.00 | 47 | 1010.1 |
| 20260507223018 | 52 | 110 | 6.0 | 12.0 | 0.00 | 0.00 | 0.00 | 47 | 1010.1 |
| 20260507222502 | 52 | 95 | 6.0 | 10.0 | 0.00 | 0.00 | 0.00 | 47 | 1010.1 |
| 20260507222003 | 52 | 111 | 5.0 | 10.0 | 0.00 | 0.00 | 0.00 | 48 | 1010.0 |
| 20260507221528 | 52 | 65 | 4.0 | 7.0 | 0.00 | 0.00 | 0.00 | 48 | 1010.0 |
| 20260507221007 | 52 | 150 | 3.0 | 9.0 | 0.00 | 0.00 | 0.00 | 49 | 1010.1 |
| 20260507220503 | 52 | 126 | 1.0 | 10.0 | 0.00 | 0.00 | 0.00 | 48 | 1010.1 |
| 20260507220018 | 52 | 72 | 3.0 | 10.0 | 0.00 | 0.00 | 0.00 | 48 | 1010.1 |
| 20260507215503 | 53 | 148 | 5.0 | 10.0 | 0.00 | 0.00 | 0.00 | 46 | 1010.0 |
| 20260507215004 | 53 | 169 | 2.0 | 7.0 | 0.00 | 0.00 | 0.00 | 47 | 1009.9 |
| 20260507214520 | 53 | 146 | 3.0 | 7.0 | 0.00 | 0.00 | 0.00 | 47 | 1009.9 |
| 20260507214008 | 53 | 309 | 2.0 | 9.0 | 0.00 | 0.00 | 0.00 | 47 | 1009.9 |
| 20260507213503 | 54 | 163 | 4.0 | 9.0 | 0.00 | 0.00 | 0.00 | 46 | 1009.8 |
| 20260507213027 | 54 | 167 | 1.0 | 7.0 | 0.00 | 0.00 | 0.00 | 46 | 1009.8 |
| 20260507212502 | 53 | 107 | 4.0 | 10.0 | 0.00 | 0.00 | 0.00 | 47 | 1009.9 |
| 20260507212003 | 52 | 169 | 4.0 | 10.0 | 0.00 | 0.00 | 0.00 | 49 | 1009.9 |
| 20260507211533 | 52 | 53 | 3.0 | 8.0 | 0.00 | 0.00 | 0.00 | 49 | 1010.0 |
| 20260507211004 | 52 | 227 | 1.0 | 9.0 | 0.00 | 0.00 | 0.00 | 47 | 1010.0 |
| 20260507210503 | 52 | 131 | 5.0 | 9.0 | 0.00 | 0.00 | 0.00 | 47 | 1010.0 |
| 20260507210029 | 53 | 121 | 4.0 | 9.0 | 0.00 | 0.00 | 0.00 | 45 | 1010.1 |
| 20260507205503 | 54 | 97 | 4.0 | 9.0 | 0.00 | 0.00 | 0.00 | 45 | 1009.9 |